User: anonymous   Login
Location: Unspecified
(0.0000°N, 0.0000°E)
Time: 02:47:15
(UTC+00:00)
Language:

DOVE 4 - Orbit

View from above orbital plane
View from above orbital plane
View from above satellite
View from above satellite

Ground track
Ground track

The orbit data is extracted from the following two-line orbital elements,

1 39430U 13066Q   19078.83551691  .00000135  00000-0  33474-4 0  9992
2 39430  97.7347  41.4337 0151211 180.2115 179.9052 14.59207930283353
Epoch (UTC): 19 March 2019 20:03:08
Eccentricity: 0.0151211
inclination: 97.7347°
perigee height: 589 km
apogee height: 803 km
right ascension of ascending node: 41.4337°
argument of perigee: 180.2115°
revolutions per day: 14.59207930
mean anomaly at epoch: 179.9052°
orbit number at epoch: 28335

The dashed part of the orbit path shows where the satellite is in the earth's shadow,  

DLR